Temperature
14 14 15 15 16 16 17 20 22 23 23 23 23 23 23 22 22 19 17 17 17 17 17 17 17 17 17 17 17 17 17 17 17 17 17 17 17 16 16 16 16 16 16 16 16 16 16 16 16
13 14 15 16 16 16 18 20 22 22 22 21 22 22 22 22 20 18 17 17 17 17 17 17 17 17 17 17 17 17 17 17 17 17 17 17 17 16 16 16 16 16 16 16 16 16 16 16 16
13 14 15 16 16 17 20 21 21 21 21 21 21 21 21 20 19 17 17 17 17 17 17 17 17 17 17 17 17 17 17 17 16 17 17 17 17 16 16 16 16 16 16 16 16 16 16 16 16
13 14 15 16 17 19 20 20 20 20 20 20 21 21 20 18 17 17 16 16 16 16 16 17 17 17 17 17 17 17 17 16 16 16 16 16 16 16 16 16 16 16 16 16 16 15 15 16 16
13 14 15 15 17 19 20 20 20 20 20 20 20 20 19 17 17 17 16 16 16 16 16 16 16 17 16 16 16 17 17 16 16 16 16 16 16 16 16 16 16 16 16 16 16 15 15 15 16
13 15 14 15 17 19 19 20 19 19 20 20 19 19 18 17 16 16 16 16 16 16 16 16 16 16 16 16 16 16 16 16 16 16 16 16 16 16 16 16 16 16 16 16 16 15 15 15 15
13 14 15 16 17 18 19 19 18 18 19 19 18 18 17 16 16 16 16 16 16 16 16 16 16 16 16 16 16 16 16 16 16 16 16 16 16 16 16 16 16 16 16 15 15 15 15 15 15
13 14 15 16 17 18 18 18 17 17 17 17 17 17 17 15 15 15 15 15 15 15 15 15 15 15 15 15 16 16 16 16 16 16 16 16 16 16 16 16 16 16 15 15 15 15 15 15 15
12 12 14 16 16 17 17 17 17 16 16 16 16 16 15 15 14 14 14 14 15 15 15 15 15 15 15 15 15 15 15 15 15 15 15 15 15 15 15 15 15 15 15 15 15 15 15 15 15
12 12 14 15 15 16 16 16 15 15 15 15 15 15 14 14 14 14 14 14 14 14 14 15 15 15 15 15 15 15 15 15 15 15 15 15 15 15 15 15 15 15 15 15 15 15 15 15 15
12 12 14 14 14 14 14 14 14 14 14 15 14 14 14 14 13 13 13 13 13 13 14 14 14 15 15 15 15 15 15 15 15 15 15 15 15 15 15 15 15 15 15 15 15 15 15 14 14
13 13 13 13 13 13 13 13 14 14 14 14 13 13 13 13 13 13 13 13 13 13 13 14 14 14 14 14 15 15 15 15 15 15 15 15 15 14 14 15 15 15 15 15 14 14 14 14 14
12 12 13 12 12 12 12 13 13 13 13 13 13 13 13 13 12 12 12 12 13 13 13 13 13 14 14 14 14 14 14 14 15 15 15 15 14 14 14 14 14 14 14 14 14 14 14 14 14
12 12 12 12 12 12 12 12 12 12 12 13 13 13 12 12 12 12 12 12 12 12 12 12 13 13 13 13 14 14 14 14 14 14 14 14 14 14 14 14 14 14 14 14 14 14 14 13 13
11 11 11 12 12 12 12 11 12 12 12 12 12 12 12 12 12 12 12 11 12 12 12 12 12 13 13 13 13 13 14 14 14 14 14 14 14 14 14 14 14 14 14 14 14 14 13 13 13
11 10 10 12 12 12 11 10 12 13 12 12 12 12 12 12 11 11 11 11 11 11 11 12 12 12 12 13 13 13 13 13 13 14 14 13 13 13 14 14 14 14 14 13 13 13 13 13 13
10 10 11 12 12 12 11 11 12 12 12 12 12 12 12 11 11 11 11 11 11 11 11 11 11 12 12 12 12 13 13 13 13 13 13 13 13 13 13 13 13 13 13 13 13 13 13 13 13
10 11 11 11 12 12 11 11 12 12 12 12 12 12 11 11 11 10 10 10 10 10 10 10 11 11 11 11 12 12 12 12 12 13 13 13 13 13 13 13 13 13 13 13 13 13 13 13 13
11 11 11 11 12 11 11 11 12 12 12 11 11 11 11 10 10 10 10 10 10 10 10 10 10 11 11 11 11 11 11 12 12 12 12 12 12 12 12 12 12 12 12 12 12 12 12 12 12
10 10 10 11 12 11 11 11 11 12 11 11 11 11 10 10 10 10 10 9 9 9 9 9 10 10 10 10 10 11 11 11 11 11 12 12 12 12 12 12 12 12 12 12 12 12 12 12 12
10 10 10 10 11 11 10 10 11 11 11 11 11 10 10 9 9 9 9 9 9 9 9 9 9 9 10 10 10 10 10 11 11 11 11 11 11 11 12 12 12 12 12 12 12 12 12 12 12
9 10 10 10 9 9 10 9 10 11 11 10 10 10 9 9 9 9 9 8 8 8 8 9 9 9 9 9 9 10 10 10 10 10 10 11 11 11 11 11 11 11 11 11 11 11 11 11 11
9 10 10 10 9 9 10 9 10 10 10 10 10 10 9 8 8 8 8 8 8 8 8 8 8 9 9 9 9 9 9 9 10 10 10 10 10 10 10 10 11 11 11 11 11 11 11 10 10
10 9 10 9 9 8 10 9 9 9 10 10 10 9 8 8 8 8 8 8 8 8 8 8 8 8 8 8 8 9 9 9 9 9 9 9 9 10 10 10 10 10 10 10 10 10 10 10 10
9 8 8 8 8 9 11 10 10 10 10 10 9 9 8 8 8 7 7 7 7 7 7 7 7 8 8 8 8 8 8 9 9 9 9 9 9 9 9 9 9 10 10 10 10 10 10 9 9
9 8 8 8 9 9 10 9 10 10 10 9 9 8 8 7 7 7 7 7 7 7 7 7 7 7 7 7 8 8 8 8 8 8 8 8 8 8 9 9 9 9 9 9 9 9 9 9 9
8 8 9 8 8 8 10 11 10 10 9 9 8 8 7 7 7 7 7 7 6 6 6 6 6 7 7 7 7 7 7 8 8 8 8 8 8 8 8 8 8 8 8 8 8 8 8 8 8
9 8 8 7 8 9 10 10 9 9 9 8 8 8 7 7 7 7 6 6 6 6 6 6 6 6 6 7 7 7 7 7 7 7 7 8 8 8 7 7 8 8 8 8 8 8 7 7 7
8 8 8 8 8 8 9 10 11 10 9 8 8 8 7 7 7 6 6 6 6 6 6 6 6 6 6 6 6 7 7 7 7 7 7 7 7 7 7 7 7 7 7 7 7 7 7 7 7
9 9 8 7 8 8 8 9 11 10 9 9 8 8 7 7 6 6 6 6 6 6 6 6 6 6 6 6 6 6 6 6 6 6 6 6 7 7 7 7 7 7 7 7 7 7 7 6 6
Wind_Speed
10 11 8 3 4 6 10 10 8 3 1 4 6 4 5 5 4 7 5 7 6 5 9 11 11 11 11 11 11 12 12 12 12 12 12 12 11 11 11 11 11 10 10 10 10 11 11 11 11
11 8 5 4 5 8 9 11 8 1 4 6 5 4 3 2 6 7 5 6 5 5 8 9 11 11 11 11 11 11 12 12 12 12 12 12 12 11 11 11 10 10 10 10 10 10 11 11 10
10 8 4 4 7 10 5 2 3 3 5 3 1 2 3 3 6 5 5 5 4 5 7 9 11 10 10 11 11 11 11 12 12 12 12 12 12 11 11 11 10 10 10 10 11 11 10 10 9
5 4 4 7 13 10 4 2 4 3 3 0 1 2 2 5 5 5 6 5 5 4 6 9 11 9 10 10 11 11 11 11 11 12 12 12 12 12 11 11 11 11 10 11 11 11 10 9 8
4 4 6 9 14 9 3 1 3 1 3 3 3 2 4 5 8 7 6 6 5 4 5 7 10 10 9 10 11 11 11 11 11 11 12 12 12 12 12 11 11 11 11 11 11 10 9 9 7
4 4 7 11 11 8 3 2 0 3 2 3 2 3 2 5 7 6 5 5 5 4 3 4 8 10 10 10 10 11 12 11 11 11 12 12 12 12 12 12 12 12 12 12 11 10 9 8 7
5 5 8 10 8 6 4 2 2 3 3 1 0 3 2 6 6 5 5 5 5 3 2 2 4 8 10 11 11 11 11 12 12 12 12 12 12 12 12 13 12 12 12 12 11 10 9 8 7
4 4 8 9 8 4 1 2 1 3 3 2 1 2 1 4 5 5 5 4 4 3 1 1 2 4 6 9 11 11 11 12 12 12 12 12 13 13 13 13 13 12 12 12 11 10 10 9 8
5 4 7 6 5 1 2 1 1 3 4 2 1 3 3 4 4 4 3 3 3 3 1 0 1 2 4 6 9 11 11 12 12 11 12 12 11 12 12 13 14 13 12 12 12 11 10 9 8
4 5 5 4 5 3 2 2 1 1 4 4 3 2 3 3 3 3 3 3 3 3 2 2 1 1 2 4 6 7 9 10 11 10 11 11 11 11 12 13 15 14 14 13 12 12 11 9 8
4 5 3 4 6 6 3 3 3 5 5 5 3 3 3 3 3 4 4 4 3 3 3 2 2 2 2 1 3 4 5 7 10 10 11 10 10 9 9 9 11 12 12 11 11 11 10 9 8
5 5 4 2 4 4 4 4 5 6 6 4 4 4 4 5 4 4 4 4 4 3 3 3 3 2 2 2 2 3 3 4 5 8 10 8 4 4 5 6 9 9 10 9 8 8 9 9 8
6 4 3 2 3 4 5 6 7 8 7 6 5 5 6 6 5 5 4 4 4 4 4 3 3 3 3 2 3 3 3 4 5 6 9 8 4 5 4 5 7 8 9 8 6 6 6 6 6
3 4 4 4 5 6 6 8 7 7 6 6 6 6 6 6 5 5 4 4 4 4 4 3 3 3 3 3 3 3 3 3 4 5 7 8 6 5 5 5 5 5 7 7 7 6 5 4 3
3 3 5 6 7 5 4 8 9 8 6 7 7 5 5 4 4 4 3 4 4 4 4 3 3 3 4 4 4 2 2 2 2 3 6 7 7 6 4 4 5 4 7 6 5 5 4 3 3
4 4 4 4 6 4 4 7 4 3 5 7 6 5 4 3 3 3 4 4 3 4 4 4 4 3 4 3 3 2 1 2 2 2 2 3 5 6 4 4 4 5 6 4 4 4 4 3 3
5 4 4 3 5 4 5 6 3 2 4 5 4 3 3 2 1 2 3 3 3 3 3 3 4 3 3 3 2 1 1 2 2 2 2 1 2 4 3 4 3 4 4 4 4 4 3 3 3
2 3 4 4 4 5 7 7 4 3 5 5 4 3 3 2 1 1 2 3 3 3 3 3 4 3 2 1 1 1 1 1 1 2 2 2 1 2 3 3 3 3 3 3 4 4 3 3 3
5 4 5 4 2 5 8 9 7 5 5 5 4 3 3 2 1 1 1 2 2 3 3 2 2 3 2 1 1 2 1 1 1 2 3 2 2 2 2 3 3 3 3 3 3 3 3 3 2
5 5 4 3 2 5 7 10 8 6 5 4 4 3 3 2 1 1 1 2 2 2 3 3 2 3 2 1 1 1 1 1 1 1 2 2 2 2 2 2 3 3 3 3 3 3 3 2 2
6 5 4 4 5 6 6 8 8 4 4 3 3 3 1 1 1 1 1 2 2 2 3 3 2 2 2 2 0 1 1 1 1 1 1 2 2 2 2 2 2 3 3 4 4 4 4 3 3
4 3 5 6 4 3 3 5 4 3 3 3 2 1 1 1 1 1 1 2 2 2 2 3 2 2 1 1 1 2 2 2 1 1 1 2 2 2 2 2 1 2 3 3 3 3 3 3 4
3 5 6 7 6 5 5 5 4 2 3 3 2 1 0 1 1 2 2 2 2 2 2 3 2 1 1 1 2 2 1 2 2 2 2 2 2 2 2 1 1 1 1 2 2 3 3 3 4
4 4 6 5 3 5 6 6 4 3 4 3 1 1 1 1 1 1 3 3 2 3 3 3 3 2 1 1 2 3 3 3 3 2 2 1 1 1 1 1 1 1 1 1 2 3 3 3 3
2 2 2 2 4 4 3 4 4 2 1 1 0 1 1 1 1 1 2 2 2 3 2 2 3 3 3 2 2 2 2 2 3 2 2 2 1 1 1 0 0 1 0 1 1 2 2 3 3
3 2 2 3 3 2 2 4 2 4 3 2 1 1 1 1 1 1 2 2 2 2 2 3 3 3 3 3 2 2 2 1 1 1 1 1 1 0 1 0 0 0 0 0 1 1 2 2 2
2 2 1 2 4 4 4 3 2 3 3 1 1 1 1 0 1 1 1 2 2 2 2 3 3 3 4 4 3 3 3 3 2 2 2 1 1 0 1 0 1 0 0 0 0 1 1 1 2
3 3 2 2 3 4 4 3 2 3 3 2 1 1 0 1 1 1 1 2 2 2 2 3 3 3 3 4 4 4 4 3 2 2 2 2 1 1 1 1 1 0 0 0 1 1 1 2 2
3 2 3 3 3 3 4 2 1 4 4 2 1 1 1 1 1 1 1 2 2 3 3 3 3 4 4 4 4 4 3 3 3 3 3 2 2 2 2 1 1 0 0 1 1 1 2 2 2
2 3 2 2 4 3 4 4 3 4 4 3 1 1 2 2 1 1 1 2 2 2 3 3 3 3 3 3 3 3 3 3 3 3 2 2 2 2 2 1 1 1 1 1 1 2 2 2 3
Wind_Direction
282 261 245 235 225 228 236 238 245 233 326 23 16 4 344 351 23 93 115 52 54 87 119 142 148 156 159 159 157 157 158 159 160 159 158 157 154 150 146 144 142 138 134 129 124 120 115 108 105
281 253 233 227 229 226 233 227 239 171 70 40 22 346 322 48 73 92 75 40 49 86 114 138 146 159 160 161 162 162 164 165 165 166 166 163 161 157 152 150 147 142 138 133 127 123 117 112 110
270 248 223 219 228 229 242 198 178 98 76 66 72 303 318 30 56 65 47 30 40 84 105 126 142 158 166 163 165 168 170 172 171 170 171 170 168 163 159 157 152 147 142 137 132 128 123 121 120
242 226 242 238 236 237 261 355 48 97 95 78 227 200 102 49 54 56 40 22 35 64 94 125 144 156 167 169 168 171 173 175 177 176 176 176 173 168 165 162 154 150 145 142 139 137 134 133 134
243 228 221 231 240 245 233 51 22 165 151 187 254 245 101 84 74 51 34 15 19 41 79 130 153 159 168 175 177 177 179 180 181 182 183 182 177 172 169 163 157 154 151 148 148 146 146 145 147
229 236 226 228 232 233 220 138 162 265 194 170 233 276 104 97 73 47 32 6 7 21 58 134 160 166 171 175 180 183 184 185 184 185 186 186 182 175 173 168 165 163 161 157 155 155 155 154 156
240 239 244 244 237 222 203 127 161 257 240 174 143 276 133 90 67 44 28 5 355 6 46 111 164 174 177 179 184 190 190 189 188 187 188 188 186 180 175 172 171 170 170 166 164 166 166 167 170
271 271 251 250 250 242 137 104 76 306 296 8 9 263 128 77 54 33 16 350 333 344 26 127 178 182 184 186 187 192 194 194 191 189 188 188 185 182 179 176 178 177 176 174 174 177 177 177 182
267 251 246 247 257 282 66 87 70 352 307 294 287 304 352 44 29 15 356 334 319 322 338 315 209 195 196 196 194 192 195 194 192 191 189 184 185 185 183 183 182 182 180 179 181 183 183 183 192
232 239 251 332 347 356 29 7 5 281 266 266 267 289 333 360 356 338 325 311 302 298 315 340 302 239 226 206 191 195 195 191 192 195 189 190 190 189 187 185 184 186 186 184 187 190 187 186 194
221 247 273 325 356 3 356 324 297 269 254 261 275 298 318 316 306 297 294 296 301 304 315 317 314 287 251 215 190 193 196 190 197 201 193 192 193 183 177 170 179 186 187 187 190 191 193 199 197
229 250 269 304 342 331 314 300 279 262 270 310 314 311 300 291 288 281 282 291 297 296 286 283 291 285 259 237 208 195 191 188 192 201 196 190 185 178 170 169 176 183 189 188 184 193 201 207 205
233 246 262 292 293 286 284 278 278 270 280 288 283 276 273 272 272 274 276 287 288 280 277 264 267 272 262 248 227 213 201 196 196 197 198 192 182 183 178 177 177 185 185 182 187 195 201 204 205
235 249 260 250 245 252 256 264 263 261 263 267 260 258 256 264 268 270 274 278 282 283 285 272 262 261 261 256 238 221 205 197 190 192 196 191 187 185 184 181 178 182 179 182 190 197 198 201 198
272 250 250 234 226 231 253 258 245 254 256 258 258 255 258 263 275 281 286 283 284 290 295 281 259 252 253 256 251 232 203 193 181 187 198 190 186 182 185 183 180 180 179 184 190 197 195 198 202
219 227 236 216 211 202 219 259 253 242 247 255 257 257 259 258 268 288 300 292 290 300 301 299 284 266 252 249 245 224 202 178 167 150 173 185 176 173 176 181 185 181 181 180 188 190 192 198 200
205 230 240 213 193 193 221 266 267 245 253 259 265 268 271 266 291 321 321 315 314 304 300 302 292 273 264 253 232 212 187 197 160 142 133 164 174 172 169 181 185 175 181 185 193 185 189 199 200
245 246 252 235 195 219 237 260 257 255 262 263 260 264 274 271 290 349 337 323 322 307 300 300 300 293 281 269 221 174 150 196 155 149 154 174 169 168 166 175 178 171 175 182 183 187 194 200 200
303 276 272 273 258 256 253 262 263 245 248 260 261 264 283 287 318 19 357 343 351 354 349 336 318 320 315 297 235 194 172 174 159 161 153 158 162 162 158 177 177 176 181 186 181 183 195 204 189
294 283 275 280 264 275 270 270 264 244 235 248 269 275 272 292 320 2 12 18 10 0 352 335 331 319 305 280 248 201 172 168 160 154 144 151 149 144 163 161 177 174 178 185 188 187 188 193 177
289 286 300 303 302 264 273 274 244 226 207 217 247 261 282 268 291 347 5 11 359 356 347 329 320 303 303 299 253 125 137 121 112 119 112 118 115 119 120 130 157 177 181 190 197 192 189 199 200
288 314 304 297 293 272 249 282 242 196 195 207 228 241 329 332 336 13 18 358 355 353 344 335 335 317 290 264 179 173 179 165 183 156 136 114 92 90 95 108 146 170 180 188 196 190 200 197 209
294 310 283 270 272 278 241 249 265 167 229 233 219 193 113 8 4 4 2 6 6 8 349 341 339 327 284 223 173 173 167 160 151 133 131 127 109 92 96 112 122 147 166 183 197 197 203 208 213
292 299 276 248 254 262 226 219 262 199 231 238 203 111 71 15 12 2 6 3 5 19 15 0 5 27 25 118 152 152 152 148 144 142 152 137 137 131 109 120 148 160 143 171 200 200 202 216 217
275 311 305 232 224 244 186 216 252 156 109 194 203 60 44 2 349 19 5 346 7 28 28 19 26 32 28 53 90 113 126 139 142 158 157 161 169 154 148 158 180 179 188 219 213 202 204 214 222
271 273 301 296 289 299 232 240 220 121 108 93 96 102 51 5 11 19 6 354 17 33 40 38 40 35 30 36 51 74 91 112 125 127 135 152 123 92 103 149 222 92 60 243 203 201 209 215 227
285 244 305 295 285 271 235 206 151 123 125 137 173 174 198 24 30 29 25 30 42 40 42 49 49 41 37 39 50 62 76 80 85 81 87 77 81 93 43 30 26 22 320 300 188 194 219 226 234
269 308 287 258 295 291 261 218 218 182 191 190 175 162 109 76 51 57 51 45 48 46 43 54 54 48 41 40 49 53 57 58 60 68 65 63 50 46 43 40 31 354 292 262 213 218 237 234 245
198 230 248 265 268 285 298 284 59 156 159 169 177 158 125 84 67 61 51 55 58 51 51 56 53 48 44 43 49 58 60 67 63 65 62 57 53 53 49 39 20 29 276 258 227 225 233 241 260
248 253 250 264 281 261 274 280 70 92 119 141 168 170 150 148 129 97 78 80 70 61 54 60 62 52 44 47 50 56 53 57 64 64 60 58 51 55 60 48 32 15 359 312 264 258 261 256 263
Height
1494 1497 1500 1504 1506 1505 1499 1486 1477 1476 1477 1479 1481 1482 1485 1488 1492 1503 1504 1502 1502 1502 1502 1503 1505 1507 1509 1511 1513 1515 1517 1519 1521 1523 1525 1526 1528 1530 1531 1532 1533 1535 1536 1537 1537 1538 1539 1540 1541
1494 1498 1502 1502 1503 1503 1492 1481 1477 1476 1479 1482 1484 1486 1488 1490 1494 1498 1500 1501 1502 1502 1502 1503 1505 1507 1509 1511 1513 1515 1517 1519 1521 1523 1525 1527 1528 1530 1531 1533 1534 1535 1536 1537 1538 1539 1540 1541 1542
1494 1497 1500 1498 1496 1492 1483 1475 1475 1477 1481 1484 1487 1489 1491 1493 1496 1498 1499 1500 1501 1502 1502 1503 1505 1507 1509 1511 1513 1515 1517 1519 1521 1523 1525 1527 1528 1530 1532 1533 1534 1536 1537 1538 1539 1540 1541 1542 1543
1495 1498 1498 1496 1489 1481 1478 1476 1476 1479 1483 1486 1489 1491 1493 1496 1497 1498 1499 1500 1501 1502 1502 1503 1505 1506 1508 1510 1512 1514 1516 1518 1520 1523 1524 1526 1528 1530 1531 1533 1534 1536 1537 1538 1539 1540 1541 1542 1543
1495 1496 1495 1492 1485 1478 1475 1477 1479 1480 1484 1487 1489 1490 1493 1496 1496 1497 1498 1500 1501 1502 1502 1503 1504 1506 1507 1509 1511 1513 1516 1518 1520 1522 1524 1526 1528 1529 1531 1533 1534 1536 1537 1538 1539 1541 1541 1542 1543
1494 1492 1492 1489 1480 1476 1476 1478 1481 1483 1484 1488 1490 1491 1494 1495 1496 1497 1498 1499 1500 1501 1501 1502 1504 1505 1506 1508 1510 1513 1515 1517 1519 1521 1523 1525 1527 1529 1530 1532 1534 1535 1537 1538 1539 1540 1541 1542 1543
1493 1490 1487 1481 1478 1476 1476 1478 1482 1484 1485 1488 1490 1492 1493 1494 1495 1496 1497 1498 1499 1500 1500 1501 1503 1504 1505 1507 1509 1511 1513 1516 1518 1520 1522 1524 1526 1528 1529 1531 1533 1534 1536 1537 1538 1540 1541 1542 1543
1490 1489 1484 1480 1478 1477 1477 1480 1483 1486 1487 1489 1491 1492 1493 1494 1494 1495 1495 1496 1497 1498 1499 1500 1501 1502 1504 1505 1507 1509 1512 1514 1516 1518 1520 1522 1524 1526 1528 1530 1531 1533 1535 1536 1537 1539 1540 1541 1542
1489 1491 1485 1479 1479 1479 1479 1481 1485 1486 1488 1489 1490 1492 1493 1493 1492 1493 1494 1494 1496 1497 1498 1498 1500 1501 1502 1503 1505 1507 1509 1512 1514 1516 1518 1520 1522 1524 1526 1528 1530 1532 1533 1535 1536 1537 1539 1540 1541
1489 1489 1483 1481 1480 1480 1481 1483 1486 1488 1488 1489 1490 1491 1492 1491 1492 1492 1492 1493 1494 1495 1496 1497 1497 1499 1500 1501 1503 1505 1507 1509 1511 1513 1515 1518 1520 1522 1524 1526 1528 1530 1531 1533 1535 1536 1537 1538 1539
1486 1485 1483 1483 1483 1483 1484 1486 1487 1488 1488 1488 1489 1490 1490 1491 1490 1491 1491 1491 1492 1493 1493 1494 1495 1496 1497 1499 1500 1502 1504 1506 1508 1511 1513 1515 1517 1519 1521 1523 1525 1527 1529 1531 1532 1534 1535 1536 1537
1485 1484 1484 1485 1486 1486 1487 1487 1488 1488 1488 1488 1488 1488 1488 1489 1489 1489 1489 1489 1489 1490 1490 1491 1492 1493 1494 1496 1497 1499 1501 1502 1505 1507 1510 1512 1514 1516 1519 1520 1522 1524 1526 1528 1530 1531 1533 1534 1536
1484 1484 1485 1486 1487 1488 1488 1488 1488 1486 1486 1486 1486 1486 1486 1486 1486 1486 1486 1486 1487 1487 1488 1488 1489 1490 1492 1493 1494 1496 1498 1499 1502 1504 1506 1509 1511 1513 1515 1517 1519 1521 1523 1525 1527 1529 1531 1532 1533
1484 1484 1485 1485 1486 1487 1487 1486 1486 1483 1484 1484 1484 1484 1484 1484 1484 1484 1484 1484 1484 1484 1485 1485 1486 1487 1488 1490 1491 1493 1494 1496 1498 1500 1503 1505 1507 1509 1512 1514 1516 1518 1520 1522 1524 1526 1528 1529 1531
1484 1485 1485 1484 1484 1485 1486 1485 1482 1481 1482 1482 1481 1481 1481 1481 1481 1481 1480 1481 1481 1481 1482 1482 1483 1484 1485 1486 1487 1489 1491 1492 1494 1496 1498 1501 1503 1506 1508 1510 1513 1515 1517 1519 1521 1523 1525 1526 1528
1484 1485 1485 1481 1481 1482 1488 1484 1478 1479 1479 1479 1478 1478 1478 1478 1478 1478 1477 1477 1477 1478 1478 1479 1479 1480 1481 1482 1484 1485 1487 1488 1490 1492 1494 1497 1500 1502 1504 1507 1509 1511 1514 1515 1518 1520 1521 1522 1524
1484 1484 1482 1480 1479 1480 1484 1481 1477 1477 1477 1476 1476 1476 1475 1475 1475 1475 1474 1474 1474 1474 1475 1475 1476 1476 1477 1478 1480 1481 1482 1484 1486 1488 1490 1493 1496 1498 1500 1503 1505 1508 1510 1511 1514 1516 1518 1519 1520
1484 1481 1480 1480 1478 1479 1480 1478 1475 1475 1475 1474 1474 1473 1473 1472 1472 1472 1471 1471 1471 1471 1471 1472 1472 1473 1474 1475 1476 1477 1479 1480 1482 1484 1486 1489 1492 1494 1496 1499 1501 1504 1506 1508 1509 1511 1513 1515 1516
1480 1481 1481 1478 1476 1478 1477 1475 1472 1472 1472 1471 1471 1471 1470 1470 1470 1470 1469 1469 1469 1468 1468 1468 1469 1469 1470 1471 1472 1473 1474 1476 1478 1480 1483 1485 1488 1490 1493 1495 1497 1499 1501 1503 1505 1507 1509 1511 1512
1481 1482 1481 1478 1476 1476 1475 1472 1469 1467 1468 1468 1468 1468 1468 1468 1468 1467 1467 1466 1466 1466 1466 1466 1466 1466 1467 1468 1469 1470 1471 1473 1475 1477 1479 1481 1484 1486 1489 1491 1493 1495 1497 1499 1501 1503 1505 1506 1508
1482 1482 1481 1480 1477 1475 1475 1472 1465 1463 1464 1465 1466 1466 1466 1466 1465 1465 1465 1465 1464 1463 1463 1463 1463 1463 1464 1465 1466 1467 1469 1470 1472 1474 1476 1478 1480 1483 1485 1487 1489 1491 1493 1495 1497 1498 1500 1501 1503
1483 1480 1480 1480 1482 1480 1477 1479 1463 1461 1462 1463 1464 1464 1464 1464 1464 1463 1463 1462 1462 1461 1461 1461 1460 1460 1461 1462 1462 1464 1465 1466 1469 1471 1473 1475 1477 1479 1482 1484 1486 1487 1489 1491 1493 1495 1496 1497 1497
1483 1480 1480 1480 1481 1481 1475 1478 1467 1461 1462 1461 1462 1462 1462 1462 1462 1462 1461 1461 1460 1459 1459 1458 1458 1458 1458 1459 1459 1461 1463 1465 1467 1469 1470 1472 1474 1477 1478 1480 1482 1484 1485 1487 1489 1490 1492 1492 1493
1482 1481 1478 1478 1481 1483 1471 1473 1466 1462 1460 1459 1459 1460 1460 1461 1460 1460 1460 1459 1458 1457 1457 1456 1456 1456 1456 1456 1457 1459 1460 1462 1463 1465 1468 1469 1471 1473 1475 1477 1478 1480 1481 1482 1484 1486 1487 1488 1489
1483 1486 1486 1483 1483 1476 1463 1466 1463 1456 1456 1457 1458 1459 1459 1460 1459 1459 1458 1458 1457 1456 1455 1455 1454 1454 1454 1455 1456 1457 1458 1460 1461 1463 1465 1466 1468 1469 1471 1473 1474 1475 1477 1479 1480 1481 1482 1483 1484
1484 1485 1489 1486 1478 1471 1465 1465 1458 1455 1456 1457 1457 1458 1459 1458 1458 1457 1457 1456 1456 1455 1454 1454 1453 1453 1454 1454 1454 1455 1456 1457 1459 1461 1462 1463 1464 1465 1467 1469 1471 1472 1473 1475 1476 1477 1478 1479 1480
1484 1484 1482 1487 1481 1477 1464 1457 1456 1455 1456 1456 1457 1457 1457 1457 1457 1456 1456 1456 1455 1454 1454 1453 1453 1453 1453 1453 1453 1454 1455 1456 1457 1458 1459 1461 1461 1463 1464 1466 1467 1468 1470 1471 1472 1472 1473 1474 1474
1484 1483 1485 1486 1483 1474 1459 1457 1458 1456 1456 1456 1456 1456 1456 1456 1456 1455 1455 1455 1455 1454 1454 1454 1453 1453 1453 1453 1453 1453 1453 1454 1455 1456 1457 1458 1459 1460 1461 1463 1464 1465 1466 1467 1468 1468 1469 1469 1470
1483 1483 1482 1483 1480 1481 1471 1461 1449 1451 1452 1454 1455 1455 1456 1456 1455 1455 1455 1455 1454 1454 1454 1453 1453 1453 1452 1452 1452 1452 1452 1453 1454 1454 1455 1456 1457 1458 1459 1460 1461 1462 1463 1463 1464 1464 1465 1465 1465
1479 1479 1481 1485 1481 1476 1476 1466 1449 1450 1451 1453 1454 1454 1455 1455 1455 1455 1455 1455 1454 1454 1453 1453 1453 1453 1452 1452 1452 1452 1452 1452 1452 1453 1454 1455 1455 1456 1456 1457 1458 1459 1459 1460 1460 1460 1461 1460 1460